SWA428 KMSP-KDEN

Flight info

Callsign SWA428
Flight time 1h 41m
Altitude 38000
Route SCHEP1 RXANN TEYOU LLUKY PORDR AALLE4
Aircraft B737/M-SDE2E3FGHIRWXY/LB1

Departure

Time 2026-05-07 18:09
Airport Minneapolis–Saint Paul International Airport / Wold–Chamberlain Field (KMSP)

Arrival

Time 2026-05-07 19:51
Airport Denver International Airport (KDEN)
Time Latitude Longitude Altitude Speed Heading
2026-05-07 17:44 44.87631 -93.22653 824 ft 0 kts 135°
2026-05-07 17:58 44.87639 -93.22664 824 ft 3 kts 136°
2026-05-07 17:59 44.87657 -93.22687 822 ft 3 kts 138°
2026-05-07 17:59 44.87674 -93.22711 821 ft 3 kts 129°
2026-05-07 17:59 44.87685 -93.22737 823 ft 3 kts 83°
2026-05-07 17:59 44.87684 -93.22743 824 ft 0 kts 76°
2026-05-07 18:03 44.87685 -93.22740 824 ft 1 kts 74°
2026-05-07 18:03 44.87710 -93.22711 821 ft 9 kts 31°
2026-05-07 18:03 44.87771 -93.22655 823 ft 12 kts 39°
2026-05-07 18:04 44.87832 -93.22568 824 ft 14 kts 46°
2026-05-07 18:04 44.87915 -93.22449 824 ft 20 kts 45°
2026-05-07 18:04 44.88016 -93.22304 824 ft 21 kts 45°
2026-05-07 18:04 44.88096 -93.22174 825 ft 13 kts 75°
2026-05-07 18:05 44.88061 -93.22054 821 ft 15 kts 122°
2026-05-07 18:05 44.87996 -93.21906 822 ft 20 kts 121°
2026-05-07 18:05 44.87917 -93.21724 820 ft 23 kts 121°
2026-05-07 18:05 44.87829 -93.21517 821 ft 26 kts 121°
2026-05-07 18:06 44.87732 -93.21296 823 ft 27 kts 121°
2026-05-07 18:06 44.87640 -93.21081 824 ft 25 kts 121°
2026-05-07 18:06 44.87553 -93.20882 824 ft 23 kts 122°
2026-05-07 18:06 44.87466 -93.20698 824 ft 22 kts 142°
2026-05-07 18:07 44.87349 -93.20567 824 ft 21 kts 121°
2026-05-07 18:07 44.87278 -93.20397 822 ft 17 kts 121°
2026-05-07 18:07 44.87231 -93.20274 824 ft 13 kts 94°
2026-05-07 18:07 44.87273 -93.20205 825 ft 3 kts 30°
2026-05-07 18:08 44.87281 -93.20199 824 ft 1 kts 30°
2026-05-07 18:08 44.87290 -93.20191 823 ft 2 kts 30°
2026-05-07 18:08 44.87305 -93.20180 825 ft 3 kts 30°
2026-05-07 18:08 44.87333 -93.20157 826 ft 8 kts 30°
2026-05-07 18:09 44.87383 -93.20183 826 ft 15 kts 293°
2026-05-07 18:09 44.87593 -93.20676 824 ft 104 kts 301°
2026-05-07 18:09 44.88097 -93.21844 987 ft 165 kts 303°
2026-05-07 18:09 44.88730 -93.23291 1943 ft 177 kts 302°
2026-05-07 18:10 44.89388 -93.24783 2999 ft 186 kts 301°
2026-05-07 18:10 44.90031 -93.26478 3529 ft 212 kts 285°
2026-05-07 18:10 44.89833 -93.28590 4155 ft 232 kts 242°
2026-05-07 18:10 44.88686 -93.30244 5039 ft 242 kts 221°
2026-05-07 18:11 44.87332 -93.31817 5758 ft 259 kts 224°
2026-05-07 18:11 44.85993 -93.33551 6863 ft 263 kts 229°
2026-05-07 18:11 44.84704 -93.35411 7944 ft 268 kts 232°
2026-05-07 18:11 44.83452 -93.37380 8992 ft 273 kts 234°
2026-05-07 18:12 44.82214 -93.39453 10037 ft 278 kts 236°
2026-05-07 18:12 44.80968 -93.41630 10674 ft 298 kts 237°
2026-05-07 18:12 44.79635 -93.44031 11110 ft 320 kts 237°
2026-05-07 18:12 44.78257 -93.46543 12023 ft 327 kts 237°
2026-05-07 18:13 44.76868 -93.49092 13110 ft 329 kts 237°
2026-05-07 18:13 44.75474 -93.51667 14098 ft 333 kts 237°
2026-05-07 18:13 44.74068 -93.54273 15005 ft 337 kts 238°
2026-05-07 18:13 44.72646 -93.56912 15930 ft 340 kts 238°
2026-05-07 18:14 44.71227 -93.59540 16850 ft 344 kts 238°
2026-05-07 18:14 44.69776 -93.62235 17782 ft 347 kts 238°
2026-05-07 18:14 44.68335 -93.64984 18624 ft 351 kts 239°
2026-05-07 18:14 44.66889 -93.67783 19388 ft 356 kts 240°
2026-05-07 18:15 44.65425 -93.70618 20138 ft 361 kts 240°
2026-05-07 18:15 44.63937 -93.73493 20890 ft 366 kts 240°
2026-05-07 18:15 44.62427 -93.76400 21640 ft 371 kts 240°
2026-05-07 18:15 44.60894 -93.79344 22371 ft 376 kts 240°
2026-05-07 18:16 44.59338 -93.82327 23037 ft 381 kts 241°
2026-05-07 18:16 44.57758 -93.85355 23651 ft 388 kts 241°
2026-05-07 18:16 44.56151 -93.88430 24239 ft 392 kts 241°
2026-05-07 18:16 44.54553 -93.91481 24857 ft 394 kts 241°
2026-05-07 18:17 44.52928 -93.94581 25501 ft 396 kts 242°
2026-05-07 18:17 44.51293 -93.97698 26090 ft 399 kts 242°
2026-05-07 18:17 44.49638 -94.00855 26631 ft 403 kts 242°
2026-05-07 18:17 44.47966 -94.04039 27173 ft 407 kts 242°
2026-05-07 18:18 44.46282 -94.07242 27722 ft 410 kts 242°
2026-05-07 18:18 44.44579 -94.10475 28277 ft 413 kts 243°
2026-05-07 18:18 44.42867 -94.13724 28800 ft 416 kts 243°
2026-05-07 18:18 44.41135 -94.17005 29293 ft 420 kts 243°
2026-05-07 18:19 44.39392 -94.20301 29746 ft 423 kts 243°
2026-05-07 18:19 44.37632 -94.23627 30143 ft 427 kts 244°
2026-05-07 18:19 44.35855 -94.26979 30509 ft 431 kts 243°
2026-05-07 18:19 44.34066 -94.30348 30879 ft 433 kts 243°
2026-05-07 18:20 44.32266 -94.33733 31250 ft 434 kts 243°
2026-05-07 18:20 44.30463 -94.37120 31707 ft 434 kts 243°
2026-05-07 18:20 44.28665 -94.40493 32219 ft 432 kts 243°
2026-05-07 18:20 44.26894 -94.43816 32698 ft 431 kts 243°
2026-05-07 18:21 44.25102 -94.47173 33136 ft 431 kts 243°
2026-05-07 18:21 44.23312 -94.50525 33577 ft 430 kts 243°
2026-05-07 18:21 44.21523 -94.53866 34019 ft 429 kts 242°
2026-05-07 18:21 44.19740 -94.57194 34367 ft 429 kts 242°
2026-05-07 18:22 44.17957 -94.60520 34651 ft 428 kts 242°
2026-05-07 18:22 44.16775 -94.62723 34858 ft 429 kts 242°
2026-05-07 18:22 44.14386 -94.67173 35306 ft 428 kts 242°
2026-05-07 18:22 44.12605 -94.70486 35634 ft 427 kts 242°
2026-05-07 18:23 44.10828 -94.73784 36023 ft 425 kts 242°
2026-05-07 18:23 44.09060 -94.77064 36386 ft 423 kts 242°
2026-05-07 18:23 44.07293 -94.80340 36663 ft 424 kts 241°
2026-05-07 18:23 44.05520 -94.83627 36932 ft 424 kts 241°
2026-05-07 18:24 44.03748 -94.86907 37238 ft 424 kts 241°
2026-05-07 18:24 44.01979 -94.90177 37561 ft 423 kts 241°
2026-05-07 18:24 44.00212 -94.93436 37853 ft 422 kts 240°
2026-05-07 18:25 43.96736 -95.00012 37962 ft 427 kts 242°
2026-05-07 18:25 43.93277 -95.06700 37962 ft 423 kts 242°
2026-05-07 18:26 43.89873 -95.13257 37951 ft 414 kts 242°
2026-05-07 18:26 43.86523 -95.19681 37952 ft 408 kts 242°
2026-05-07 18:27 43.83198 -95.26046 37956 ft 407 kts 242°
2026-05-07 18:27 43.79871 -95.32397 37961 ft 407 kts 242°
2026-05-07 18:28 43.76548 -95.38723 37955 ft 406 kts 242°
2026-05-07 18:28 43.73247 -95.44992 37956 ft 406 kts 242°
2026-05-07 18:29 43.69917 -95.51304 37952 ft 406 kts 242°
2026-05-07 18:29 43.66584 -95.57607 37945 ft 406 kts 242°
2026-05-07 18:30 43.63246 -95.63905 37969 ft 407 kts 242°
2026-05-07 18:30 43.59896 -95.70214 37963 ft 408 kts 242°
2026-05-07 18:31 43.56538 -95.76523 37961 ft 408 kts 241°
2026-05-07 18:31 43.53173 -95.82833 37959 ft 409 kts 241°
2026-05-07 18:32 43.49814 -95.89118 37943 ft 410 kts 241°
2026-05-07 18:32 43.46427 -95.95441 37929 ft 410 kts 241°
2026-05-07 18:33 43.43031 -96.01766 37929 ft 411 kts 241°
2026-05-07 18:33 43.39631 -96.08086 37940 ft 411 kts 241°
2026-05-07 18:34 43.36228 -96.14399 37938 ft 411 kts 241°
2026-05-07 18:34 43.32819 -96.20714 37937 ft 411 kts 241°
2026-05-07 18:35 43.29448 -96.27053 37934 ft 407 kts 245°
2026-05-07 18:35 43.26995 -96.33918 37946 ft 399 kts 252°
2026-05-07 18:36 43.24773 -96.40844 37905 ft 399 kts 252°
2026-05-07 18:36 43.22525 -96.47787 37905 ft 398 kts 252°
2026-05-07 18:37 43.20266 -96.54700 37925 ft 397 kts 252°
2026-05-07 18:37 43.17997 -96.61603 37938 ft 397 kts 251°
2026-05-07 18:38 43.15725 -96.68492 37937 ft 396 kts 251°
2026-05-07 18:38 43.13448 -96.75377 37940 ft 396 kts 251°
2026-05-07 18:39 43.11170 -96.82251 37946 ft 396 kts 251°
2026-05-07 18:39 43.08889 -96.89112 37950 ft 395 kts 251°
2026-05-07 18:40 43.06607 -96.95959 37950 ft 395 kts 251°
2026-05-07 18:40 43.04337 -97.02758 37959 ft 395 kts 251°
2026-05-07 18:41 43.02048 -97.09594 37959 ft 395 kts 251°
2026-05-07 18:41 42.99753 -97.16429 37940 ft 395 kts 251°
2026-05-07 18:42 42.97458 -97.23247 37940 ft 395 kts 251°
2026-05-07 18:42 42.95159 -97.30061 37944 ft 395 kts 251°
2026-05-07 18:43 42.92858 -97.36862 37944 ft 395 kts 251°
2026-05-07 18:43 42.90553 -97.43661 37943 ft 395 kts 251°
2026-05-07 18:44 42.88244 -97.50454 37970 ft 395 kts 251°
2026-05-07 18:44 42.85930 -97.57244 37971 ft 395 kts 251°
2026-05-07 18:45 42.83627 -97.63983 37963 ft 394 kts 250°
2026-05-07 18:45 42.81307 -97.70760 37967 ft 395 kts 250°
2026-05-07 18:46 42.78978 -97.77545 37957 ft 396 kts 250°
2026-05-07 18:46 42.76643 -97.84327 37961 ft 396 kts 250°
2026-05-07 18:47 42.74300 -97.91120 37938 ft 397 kts 250°
2026-05-07 18:47 42.72331 -97.96813 37952 ft 397 kts 250°
2026-05-07 18:48 42.69989 -98.03569 37941 ft 397 kts 249°
2026-05-07 18:48 42.67628 -98.10366 37954 ft 398 kts 249°
2026-05-07 18:49 42.65258 -98.17170 37947 ft 398 kts 249°
2026-05-07 18:49 42.62882 -98.23976 37946 ft 399 kts 249°
2026-05-07 18:50 42.60500 -98.30783 37946 ft 399 kts 249°
2026-05-07 18:50 42.58115 -98.37580 37930 ft 399 kts 249°
2026-05-07 18:51 42.55724 -98.44380 37937 ft 399 kts 249°
2026-05-07 18:51 42.53348 -98.51121 37944 ft 399 kts 249°
2026-05-07 18:52 42.50948 -98.57916 37948 ft 400 kts 249°
2026-05-07 18:52 42.48500 -98.64694 37940 ft 402 kts 245°
2026-05-07 18:53 42.45594 -98.71188 37943 ft 404 kts 243°
2026-05-07 18:53 42.42588 -98.77613 37941 ft 404 kts 243°
2026-05-07 18:54 42.39597 -98.84046 37942 ft 403 kts 243°
2026-05-07 18:54 42.36620 -98.90491 37938 ft 403 kts 243°
2026-05-07 18:55 42.33651 -98.96932 37934 ft 404 kts 243°
2026-05-07 18:55 42.30698 -99.03331 37929 ft 404 kts 243°
2026-05-07 18:56 42.27719 -99.09770 37903 ft 404 kts 243°
2026-05-07 18:56 42.24741 -99.16195 37904 ft 403 kts 243°
2026-05-07 18:57 42.21763 -99.22604 37921 ft 403 kts 243°
2026-05-07 18:57 42.18783 -99.29005 37930 ft 403 kts 243°
2026-05-07 18:58 42.15798 -99.35403 37921 ft 403 kts 243°
2026-05-07 18:58 42.12808 -99.41796 37922 ft 403 kts 242°
2026-05-07 18:59 42.09819 -99.48174 37892 ft 402 kts 242°
2026-05-07 18:59 42.06832 -99.54535 37917 ft 402 kts 242°
2026-05-07 19:00 42.03841 -99.60891 37915 ft 402 kts 242°
2026-05-07 19:00 42.00847 -99.67241 37920 ft 402 kts 242°
2026-05-07 19:01 41.97867 -99.73547 37911 ft 401 kts 243°
2026-05-07 19:01 41.94871 -99.79873 37916 ft 401 kts 242°
2026-05-07 19:02 41.91870 -99.86198 37903 ft 401 kts 242°
2026-05-07 19:02 41.88871 -99.92503 37911 ft 401 kts 242°
2026-05-07 19:03 41.85867 -99.98806 37909 ft 401 kts 242°
2026-05-07 19:03 41.82858 -100.05109 37912 ft 400 kts 242°
2026-05-07 19:04 41.79849 -100.11397 37909 ft 400 kts 242°
2026-05-07 19:04 41.76838 -100.17676 37909 ft 401 kts 242°
2026-05-07 19:05 41.73825 -100.23945 37892 ft 400 kts 242°
2026-05-07 19:05 41.70810 -100.30207 37902 ft 400 kts 242°
2026-05-07 19:06 41.67791 -100.36465 37906 ft 400 kts 242°
2026-05-07 19:06 41.63259 -100.45833 37908 ft 400 kts 242°
2026-05-07 19:07 41.60252 -100.52034 37905 ft 400 kts 242°
2026-05-07 19:07 41.57223 -100.58266 37875 ft 400 kts 242°
2026-05-07 19:08 41.54194 -100.64486 37892 ft 399 kts 242°
2026-05-07 19:08 41.51163 -100.70698 37900 ft 399 kts 242°
2026-05-07 19:09 41.48127 -100.76909 37882 ft 399 kts 242°
2026-05-07 19:09 41.45094 -100.83099 37898 ft 398 kts 242°
2026-05-07 19:10 41.42080 -100.89241 37902 ft 398 kts 242°
2026-05-07 19:10 41.39049 -100.95406 37896 ft 398 kts 242°
2026-05-07 19:11 41.36149 -101.01650 37890 ft 392 kts 250°
2026-05-07 19:11 41.34027 -101.08296 37902 ft 390 kts 252°
2026-05-07 19:12 41.31974 -101.14985 37888 ft 390 kts 252°
2026-05-07 19:12 41.29871 -101.21629 37895 ft 390 kts 251°
2026-05-07 19:13 41.27740 -101.28252 37897 ft 390 kts 251°
2026-05-07 19:13 41.25613 -101.34831 37894 ft 389 kts 251°
2026-05-07 19:14 41.23475 -101.41435 37915 ft 389 kts 251°
2026-05-07 19:14 41.21339 -101.48047 37930 ft 389 kts 251°
2026-05-07 19:15 41.19203 -101.54709 37918 ft 390 kts 251°
2026-05-07 19:15 41.17094 -101.61277 37946 ft 389 kts 251°
2026-05-07 19:16 41.14965 -101.67884 37943 ft 389 kts 251°
2026-05-07 19:16 41.12834 -101.74479 37954 ft 389 kts 251°
2026-05-07 19:17 41.10696 -101.81079 37965 ft 389 kts 251°
2026-05-07 19:17 41.08555 -101.87673 37962 ft 389 kts 251°
2026-05-07 19:18 41.06410 -101.94266 37953 ft 389 kts 251°
2026-05-07 19:18 41.04262 -102.00851 37945 ft 390 kts 251°
2026-05-07 19:19 41.02108 -102.07436 37923 ft 389 kts 251°
2026-05-07 19:19 40.99951 -102.14020 37920 ft 390 kts 251°
2026-05-07 19:20 40.97790 -102.20600 37910 ft 390 kts 251°
2026-05-07 19:20 40.95618 -102.27194 37907 ft 391 kts 251°
2026-05-07 19:21 40.93454 -102.33745 37791 ft 393 kts 251°
2026-05-07 19:21 40.92355 -102.37073 37323 ft 393 kts 251°
2026-05-07 19:21 40.91259 -102.40381 36751 ft 392 kts 251°
2026-05-07 19:22 40.90167 -102.43672 36166 ft 390 kts 251°
2026-05-07 19:22 40.89078 -102.46952 35646 ft 388 kts 251°
2026-05-07 19:22 40.87997 -102.50205 35195 ft 385 kts 251°
2026-05-07 19:22 40.86927 -102.53420 34752 ft 381 kts 251°
2026-05-07 19:23 40.85862 -102.56619 34319 ft 378 kts 251°
2026-05-07 19:23 40.84806 -102.59788 33881 ft 376 kts 251°
2026-05-07 19:23 40.83756 -102.62935 33380 ft 373 kts 251°
2026-05-07 19:23 40.82714 -102.66056 32914 ft 370 kts 251°
2026-05-07 19:24 40.81679 -102.69153 32477 ft 367 kts 251°
2026-05-07 19:24 40.80653 -102.72219 32048 ft 363 kts 251°
2026-05-07 19:24 40.79634 -102.75261 31639 ft 360 kts 251°
2026-05-07 19:24 40.78624 -102.78274 31210 ft 358 kts 251°
2026-05-07 19:25 40.77622 -102.81261 30808 ft 355 kts 251°
2026-05-07 19:25 40.76625 -102.84228 30411 ft 353 kts 251°
2026-05-07 19:25 40.75645 -102.87139 30024 ft 350 kts 251°
2026-05-07 19:25 40.74658 -102.90062 29686 ft 346 kts 251°
2026-05-07 19:26 40.73682 -102.92945 29389 ft 343 kts 251°
2026-05-07 19:26 40.72705 -102.95835 29116 ft 351 kts 251°
2026-05-07 19:26 40.71683 -102.98870 28849 ft 373 kts 250°
2026-05-07 19:26 40.70599 -103.02086 28538 ft 391 kts 250°
2026-05-07 19:27 40.69486 -103.05360 28192 ft 391 kts 250°
2026-05-07 19:27 40.68374 -103.08620 27897 ft 389 kts 250°
2026-05-07 19:27 40.67268 -103.11857 27580 ft 386 kts 250°
2026-05-07 19:27 40.66169 -103.15082 27309 ft 384 kts 250°
2026-05-07 19:28 40.65079 -103.18279 27024 ft 382 kts 250°
2026-05-07 19:28 40.63992 -103.21464 26722 ft 381 kts 250°
2026-05-07 19:28 40.62922 -103.24595 26428 ft 380 kts 250°
2026-05-07 19:28 40.61839 -103.27764 26129 ft 379 kts 250°
2026-05-07 19:29 40.60759 -103.30919 25826 ft 378 kts 250°
2026-05-07 19:29 40.59683 -103.34061 25531 ft 376 kts 250°
2026-05-07 19:29 40.58609 -103.37197 25227 ft 376 kts 250°
2026-05-07 19:29 40.57536 -103.40327 24932 ft 374 kts 250°
2026-05-07 19:30 40.56467 -103.43442 24632 ft 373 kts 250°
2026-05-07 19:30 40.55398 -103.46547 24319 ft 371 kts 250°
2026-05-07 19:30 40.54338 -103.49628 24022 ft 369 kts 250°
2026-05-07 19:30 40.53280 -103.52701 23732 ft 367 kts 249°
2026-05-07 19:31 40.52229 -103.55755 23429 ft 367 kts 249°
2026-05-07 19:31 40.51179 -103.58804 23106 ft 365 kts 249°
2026-05-07 19:31 40.50145 -103.61802 22805 ft 364 kts 249°
2026-05-07 19:31 40.49101 -103.64827 22511 ft 362 kts 249°
2026-05-07 19:32 40.48062 -103.67838 22221 ft 360 kts 249°
2026-05-07 19:32 40.47028 -103.70828 21940 ft 359 kts 249°
2026-05-07 19:32 40.45998 -103.73802 21658 ft 356 kts 249°
2026-05-07 19:32 40.44941 -103.76716 21370 ft 353 kts 245°
2026-05-07 19:33 40.43722 -103.79498 21094 ft 349 kts 243°
2026-05-07 19:33 40.42458 -103.82192 20833 ft 344 kts 242°
2026-05-07 19:33 40.41626 -103.83946 20648 ft 340 kts 242°
2026-05-07 19:33 40.40372 -103.86603 20363 ft 336 kts 243°
2026-05-07 19:34 40.39171 -103.89176 20109 ft 333 kts 243°
2026-05-07 19:34 40.37975 -103.91758 19849 ft 328 kts 243°
2026-05-07 19:34 40.36807 -103.94285 19582 ft 320 kts 243°
2026-05-07 19:34 40.35671 -103.96752 19327 ft 313 kts 243°
2026-05-07 19:35 40.34552 -103.99184 19085 ft 310 kts 243°
2026-05-07 19:35 40.33439 -104.01598 18839 ft 308 kts 243°
2026-05-07 19:35 40.32332 -104.03996 18594 ft 307 kts 243°
2026-05-07 19:35 40.31086 -104.06268 18325 ft 311 kts 229°
2026-05-07 19:36 40.29444 -104.08133 18019 ft 313 kts 224°
2026-05-07 19:36 40.27742 -104.09917 17711 ft 313 kts 224°
2026-05-07 19:36 40.26038 -104.11689 17428 ft 312 kts 224°
2026-05-07 19:36 40.24350 -104.13458 17176 ft 310 kts 224°
2026-05-07 19:37 40.22673 -104.15232 16929 ft 309 kts 224°
2026-05-07 19:37 40.21010 -104.17000 16688 ft 308 kts 224°
2026-05-07 19:37 40.19351 -104.18771 16440 ft 307 kts 224°
2026-05-07 19:37 40.17697 -104.20537 16195 ft 307 kts 224°
2026-05-07 19:38 40.16047 -104.22299 15929 ft 306 kts 224°
2026-05-07 19:38 40.14397 -104.24059 15694 ft 306 kts 224°
2026-05-07 19:38 40.12751 -104.25812 15456 ft 306 kts 224°
2026-05-07 19:38 40.11104 -104.27565 15216 ft 305 kts 224°
2026-05-07 19:39 40.09455 -104.29319 14970 ft 306 kts 224°
2026-05-07 19:39 40.07801 -104.31077 14740 ft 306 kts 224°
2026-05-07 19:39 40.06149 -104.32832 14508 ft 307 kts 224°
2026-05-07 19:39 40.04488 -104.34597 14276 ft 308 kts 224°
2026-05-07 19:40 40.02846 -104.36340 14037 ft 308 kts 224°
2026-05-07 19:40 40.01184 -104.38104 13802 ft 308 kts 224°
2026-05-07 19:40 39.99536 -104.39849 13526 ft 301 kts 224°
2026-05-07 19:40 39.97925 -104.41553 13281 ft 295 kts 224°
2026-05-07 19:41 39.96343 -104.43227 13049 ft 291 kts 224°
2026-05-07 19:41 39.94772 -104.44895 12828 ft 290 kts 224°
2026-05-07 19:41 39.93213 -104.46550 12609 ft 289 kts 224°
2026-05-07 19:41 39.91653 -104.48203 12387 ft 288 kts 224°
2026-05-07 19:42 39.89963 -104.49578 12148 ft 289 kts 204°
2026-05-07 19:42 39.87990 -104.50020 11944 ft 289 kts 186°
2026-05-07 19:42 39.86001 -104.50042 11722 ft 283 kts 185°
2026-05-07 19:42 39.84055 -104.50048 11498 ft 277 kts 185°
2026-05-07 19:43 39.82148 -104.50062 11282 ft 272 kts 185°
2026-05-07 19:43 39.80277 -104.50076 11096 ft 266 kts 185°
2026-05-07 19:43 39.78461 -104.50084 10992 ft 256 kts 185°
2026-05-07 19:43 39.76694 -104.50091 10776 ft 252 kts 185°
2026-05-07 19:44 39.74937 -104.50102 10462 ft 253 kts 185°
2026-05-07 19:44 39.73182 -104.50117 10206 ft 251 kts 185°
2026-05-07 19:44 39.71437 -104.50130 9919 ft 250 kts 185°
2026-05-07 19:44 39.69704 -104.50149 9615 ft 249 kts 185°
2026-05-07 19:45 39.68040 -104.50552 9255 ft 239 kts 212°
2026-05-07 19:45 39.66891 -104.51876 9136 ft 219 kts 243°
2026-05-07 19:45 39.66469 -104.53705 8992 ft 201 kts 265°
2026-05-07 19:45 39.66336 -104.55477 8747 ft 193 kts 267°
2026-05-07 19:46 39.66231 -104.57169 8559 ft 184 kts 267°
2026-05-07 19:46 39.66131 -104.58810 8242 ft 182 kts 267°
2026-05-07 19:46 39.66328 -104.60369 7925 ft 176 kts 305°
2026-05-07 19:46 39.67355 -104.61146 7867 ft 173 kts 342°
2026-05-07 19:47 39.68520 -104.61612 7902 ft 181 kts 334°
2026-05-07 19:47 39.69690 -104.62272 7900 ft 185 kts 329°
2026-05-07 19:47 39.70838 -104.63047 7707 ft 185 kts 327°
2026-05-07 19:47 39.71951 -104.63873 7518 ft 182 kts 325°
2026-05-07 19:48 39.73035 -104.64717 7326 ft 182 kts 325°
2026-05-07 19:48 39.74102 -104.65568 7138 ft 177 kts 324°
2026-05-07 19:48 39.75228 -104.66065 6918 ft 172 kts 352°
2026-05-07 19:48 39.76383 -104.66107 6693 ft 161 kts 353°
2026-05-07 19:49 39.77475 -104.66111 6580 ft 153 kts 354°
2026-05-07 19:49 39.78531 -104.66100 6312 ft 150 kts 353°
2026-05-07 19:49 39.79584 -104.66089 6105 ft 152 kts 354°
2026-05-07 19:49 39.80635 -104.66053 5861 ft 147 kts 353°
2026-05-07 19:50 39.81633 -104.66032 5638 ft 141 kts 349°
2026-05-07 19:50 39.82642 -104.66054 5449 ft 145 kts 355°
2026-05-07 19:50 39.83609 -104.66025 5361 ft 129 kts 347°
2026-05-07 19:50 39.84356 -104.66036 5365 ft 84 kts
2026-05-07 19:51 39.84789 -104.66083 5364 ft 46 kts 338°
2026-05-07 19:51 39.84977 -104.66213 5364 ft 26 kts 331°
2026-05-07 19:51 39.85125 -104.66241 5361 ft 21 kts
2026-05-07 19:51 39.85270 -104.66236 5363 ft 20 kts 359°
2026-05-07 19:52 39.85408 -104.66237 5363 ft 20 kts
2026-05-07 19:52 39.85546 -104.66235 5365 ft 20 kts
2026-05-07 19:52 39.85690 -104.66234 5365 ft 21 kts
2026-05-07 19:52 39.85834 -104.66232 5362 ft 21 kts
2026-05-07 19:53 39.85975 -104.66231 5364 ft 20 kts
2026-05-07 19:53 39.86094 -104.66259 5364 ft 16 kts 310°
2026-05-07 19:53 39.86109 -104.66397 5363 ft 15 kts 272°
2026-05-07 19:53 39.86108 -104.66533 5365 ft 15 kts 273°
2026-05-07 19:54 39.86117 -104.66663 5365 ft 14 kts 277°
2026-05-07 19:54 39.86127 -104.66790 5365 ft 15 kts 272°
2026-05-07 19:54 39.86130 -104.66920 5365 ft 14 kts 270°
2026-05-07 19:54 39.86140 -104.67031 5363 ft 9 kts 298°
2026-05-07 19:55 39.86187 -104.67083 5363 ft 9 kts 345°
2026-05-07 19:55 39.86243 -104.67083 5363 ft 5 kts
2026-05-07 19:55 39.86257 -104.67083 5365 ft 0 kts